Time,TemperatureF,DewpointF,PressureIn,WindDirection,WindDirectionDegrees,WindSpeedMPH,WindSpeedGustMPH,Humidity,HourlyPrecipIn,Conditions,Clouds,dailyrainin,SoftwareType,DateUTC
2014-01-02 00:12:00,11.0,-99.9,-100.00,North,2,8.0,12.0,-999,0.00,,,0.00,,2014-01-02 06:12:00,
2014-01-02 00:22:00,11.0,-99.9,-100.00,North,2,8.0,12.0,-999,0.00,,,0.00,,2014-01-02 06:22:00,
2014-01-02 00:43:00,11.0,-99.9,-100.00,NNE,12,8.0,10.0,-999,0.00,,,0.00,,2014-01-02 06:43:00,
2014-01-02 00:53:00,11.0,-99.9,-100.00,NNE,12,8.0,10.0,-999,0.00,,,0.00,,2014-01-02 06:53:00,
2014-01-02 01:12:00,11.0,-99.9,-100.00,North,3,10.0,12.0,-999,0.00,,,0.00,,2014-01-02 07:12:00,
2014-01-02 01:22:00,11.0,-99.9,-100.00,North,3,10.0,12.0,-999,0.00,,,0.00,,2014-01-02 07:22:00,
2014-01-02 01:42:00,12.0,-99.9,-100.00,North,359,9.0,12.0,-999,0.00,,,0.00,,2014-01-02 07:42:00,
2014-01-02 01:52:00,12.0,-99.9,-100.00,North,359,9.0,12.0,-999,0.00,,,0.00,,2014-01-02 07:52:00,
2014-01-02 02:12:00,12.0,-99.9,-100.00,North,-999,10.0,12.0,-999,0.00,,,0.00,,2014-01-02 08:12:00,
2014-01-02 02:22:00,12.0,-99.9,-100.00,North,-999,10.0,12.0,-999,0.00,,,0.00,,2014-01-02 08:22:00,
2014-01-02 02:42:00,11.0,-99.9,-100.00,North,352,10.0,12.0,-999,0.00,,,0.00,,2014-01-02 08:42:00,
2014-01-02 02:53:00,11.0,-99.9,-100.00,North,352,10.0,12.0,-999,0.00,,,0.00,,2014-01-02 08:53:00,
2014-01-02 03:12:00,10.0,-99.9,-100.00,North,349,10.0,13.0,-999,0.00,,,0.00,,2014-01-02 09:12:00,
2014-01-02 03:22:00,10.0,-99.9,-100.00,North,349,10.0,13.0,-999,0.00,,,0.00,,2014-01-02 09:22:00,
2014-01-02 03:43:00,11.0,-99.9,-100.00,NNW,348,8.0,13.0,-999,0.00,,,0.00,,2014-01-02 09:43:00,
2014-01-02 03:53:00,11.0,-99.9,-100.00,NNW,348,8.0,13.0,-999,0.00,,,0.00,,2014-01-02 09:53:00,
2014-01-02 04:13:00,11.0,-99.9,-100.00,NNW,329,11.0,14.0,-999,0.00,,,0.00,,2014-01-02 10:13:00,
2014-01-02 04:24:00,11.0,-99.9,-100.00,NNW,329,11.0,14.0,-999,0.00,,,0.00,,2014-01-02 10:24:00,
2014-01-02 04:43:00,10.0,-99.9,-100.00,NNW,330,9.0,12.0,-999,0.00,,,0.00,,2014-01-02 10:43:00,
2014-01-02 04:53:00,10.0,-99.9,-100.00,NNW,330,9.0,12.0,-999,0.00,,,0.00,,2014-01-02 10:53:00,
2014-01-02 05:12:00,10.0,-99.9,-100.00,NW,326,9.0,12.0,-999,0.00,,,0.00,,2014-01-02 11:12:00,
2014-01-02 05:23:00,10.0,-99.9,-100.00,NW,326,9.0,12.0,-999,0.00,,,0.00,,2014-01-02 11:23:00,
2014-01-02 05:42:00,10.0,-99.9,-100.00,NNW,327,10.0,16.0,-999,0.00,,,0.00,,2014-01-02 11:42:00,
2014-01-02 05:53:00,10.0,-99.9,-100.00,NNW,327,10.0,16.0,-999,0.00,,,0.00,,2014-01-02 11:53:00,
2014-01-02 06:12:00,10.0,-99.9,-100.00,NNW,334,9.0,12.0,-999,0.00,,,0.00,,2014-01-02 12:12:00,
2014-01-02 06:22:00,10.0,-99.9,-100.00,NNW,334,9.0,12.0,-999,0.00,,,0.00,,2014-01-02 12:22:00,
2014-01-02 06:42:00,10.0,-99.9,-100.00,NNW,327,9.0,14.0,-999,0.00,,,0.00,,2014-01-02 12:42:00,
2014-01-02 06:52:00,10.0,-99.9,-100.00,NNW,327,9.0,14.0,-999,0.00,,,0.00,,2014-01-02 12:52:00,
2014-01-02 07:11:00,10.0,-99.9,-100.00,NW,320,10.0,15.0,-999,0.00,,,0.00,,2014-01-02 13:11:00,
2014-01-02 07:22:00,10.0,-99.9,-100.00,NW,320,10.0,15.0,-999,0.00,,,0.00,,2014-01-02 13:22:00,
2014-01-02 07:42:00,10.0,-99.9,-100.00,NW,307,8.0,11.0,-999,0.00,,,0.00,,2014-01-02 13:42:00,
2014-01-02 07:52:00,10.0,-99.9,-100.00,NW,307,8.0,11.0,-999,0.00,,,0.00,,2014-01-02 13:52:00,
2014-01-02 08:12:00,10.0,-99.9,-100.00,NW,321,8.0,13.0,-999,0.00,,,0.00,,2014-01-02 14:12:00,
2014-01-02 08:22:00,10.0,-99.9,-100.00,NW,321,8.0,13.0,-999,0.00,,,0.00,,2014-01-02 14:22:00,
2014-01-02 08:42:00,10.0,-99.9,-100.00,NW,325,9.0,13.0,-999,0.00,,,0.00,,2014-01-02 14:42:00,
2014-01-02 08:53:00,10.0,-99.9,-100.00,NW,325,9.0,13.0,-999,0.00,,,0.00,,2014-01-02 14:53:00,
2014-01-02 09:12:00,10.0,-99.9,-100.00,NW,320,8.0,13.0,-999,0.00,,,0.00,,2014-01-02 15:12:00,
2014-01-02 09:22:00,10.0,-99.9,-100.00,NW,320,8.0,13.0,-999,0.00,,,0.00,,2014-01-02 15:22:00,
2014-01-02 09:44:00,10.0,-99.9,-100.00,NNW,332,9.0,12.0,-999,0.00,,,0.00,,2014-01-02 15:44:00,
2014-01-02 09:54:00,10.0,-99.9,-100.00,NNW,332,9.0,12.0,-999,0.00,,,0.00,,2014-01-02 15:54:00,
2014-01-02 10:13:00,10.0,-99.9,-100.00,NW,323,9.0,13.0,-999,0.00,,,0.00,,2014-01-02 16:13:00,
2014-01-02 10:24:00,10.0,-99.9,-100.00,NW,323,9.0,13.0,-999,0.00,,,0.00,,2014-01-02 16:24:00,
2014-01-02 10:43:00,10.0,-99.9,-100.00,NNW,328,9.0,16.0,-999,0.00,,,0.00,,2014-01-02 16:43:00,
2014-01-02 10:53:00,10.0,-99.9,-100.00,NNW,328,9.0,16.0,-999,0.00,,,0.00,,2014-01-02 16:53:00,
2014-01-02 11:12:00,10.0,-99.9,-100.00,NNW,329,9.0,12.0,-999,0.00,,,0.00,,2014-01-02 17:12:00,
2014-01-02 11:22:00,10.0,-99.9,-100.00,NNW,329,9.0,12.0,-999,0.00,,,0.00,,2014-01-02 17:22:00,
2014-01-02 11:43:00,11.0,-99.9,-100.00,NNW,338,10.0,13.0,-999,0.00,,,0.00,,2014-01-02 17:43:00,
2014-01-02 11:52:00,11.0,-99.9,-100.00,NNW,338,10.0,13.0,-999,0.00,,,0.00,,2014-01-02 17:52:00,
2014-01-02 12:12:00,11.0,-99.9,-100.00,NW,308,6.0,11.0,-999,0.00,,,0.00,,2014-01-02 18:12:00,
2014-01-02 12:22:00,11.0,-99.9,-100.00,NW,308,6.0,11.0,-999,0.00,,,0.00,,2014-01-02 18:22:00,
2014-01-02 12:43:00,11.0,-99.9,-100.00,NNW,327,9.0,12.0,-999,0.00,,,0.00,,2014-01-02 18:43:00,
2014-01-02 12:53:00,11.0,-99.9,-100.00,NNW,327,9.0,12.0,-999,0.00,,,0.00,,2014-01-02 18:53:00,
2014-01-02 13:11:00,12.0,-99.9,-100.00,NNW,327,8.0,10.0,-999,0.00,,,-99.99,,2014-01-02 19:11:00,
2014-01-02 13:22:00,12.0,-99.9,-100.00,NNW,327,8.0,10.0,-999,0.00,,,-99.99,,2014-01-02 19:22:00,
2014-01-02 13:42:00,12.0,-99.9,-100.00,NNW,339,9.0,12.0,-999,0.00,,,0.00,,2014-01-02 19:42:00,
2014-01-02 13:52:00,12.0,-99.9,-100.00,NNW,339,9.0,12.0,-999,0.00,,,0.00,,2014-01-02 19:52:00,
2014-01-02 14:11:00,12.0,-99.9,-100.00,NNW,347,10.0,14.0,-999,0.00,,,0.00,,2014-01-02 20:11:00,
2014-01-02 14:22:00,12.0,-99.9,-100.00,NNW,347,10.0,14.0,-999,0.00,,,0.00,,2014-01-02 20:22:00,
2014-01-02 14:42:00,12.0,-99.9,-100.00,NNW,335,9.0,14.0,-999,0.00,,,0.00,,2014-01-02 20:42:00,
2014-01-02 14:52:00,12.0,-99.9,-100.00,NNW,335,9.0,14.0,-999,0.00,,,0.00,,2014-01-02 20:52:00,
2014-01-02 15:12:00,12.0,-99.9,-100.00,North,354,10.0,15.0,-999,0.00,,,-99.99,,2014-01-02 21:12:00,
2014-01-02 15:22:00,12.0,-99.9,-100.00,North,354,10.0,15.0,-999,0.00,,,-99.99,,2014-01-02 21:22:00,
2014-01-02 15:44:00,12.0,-99.9,-100.00,NNW,335,8.0,11.0,-999,0.00,,,0.00,,2014-01-02 21:44:00,
2014-01-02 15:53:00,12.0,-99.9,-100.00,NNW,335,8.0,11.0,-999,0.00,,,0.00,,2014-01-02 21:53:00,
2014-01-02 16:13:00,12.0,-99.9,-100.00,NNW,337,8.0,13.0,-999,0.00,,,0.00,,2014-01-02 22:13:00,
2014-01-02 16:23:00,12.0,-99.9,-100.00,NNW,337,8.0,13.0,-999,0.00,,,0.00,,2014-01-02 22:23:00,
2014-01-02 16:43:00,12.0,-99.9,-100.00,NW,323,6.0,10.0,-999,0.00,,,0.00,,2014-01-02 22:43:00,
2014-01-02 16:53:00,12.0,-99.9,-100.00,NW,323,6.0,10.0,-999,0.00,,,0.00,,2014-01-02 22:53:00,
2014-01-02 17:12:00,12.0,-99.9,-100.00,NW,321,6.0,9.0,-999,0.00,,,0.00,,2014-01-02 23:12:00,
2014-01-02 17:22:00,12.0,-99.9,-100.00,NW,321,6.0,9.0,-999,0.00,,,0.00,,2014-01-02 23:22:00,
2014-01-02 17:43:00,11.0,-99.9,-100.00,NW,308,5.0,6.0,-999,0.00,,,0.00,,2014-01-02 23:43:00,
2014-01-02 17:53:00,11.0,-99.9,-100.00,NW,308,5.0,6.0,-999,0.00,,,0.00,,2014-01-02 23:53:00,
2014-01-02 18:12:00,10.0,-99.9,-100.00,WNW,300,5.0,8.0,-999,0.00,,,0.00,,2014-01-03 00:12:00,
2014-01-02 18:22:00,10.0,-99.9,-100.00,WNW,300,5.0,8.0,-999,0.00,,,0.00,,2014-01-03 00:22:00,
2014-01-02 18:42:00,9.0,-99.9,-100.00,NW,309,6.0,8.0,-999,0.00,,,0.00,,2014-01-03 00:42:00,
2014-01-02 18:52:00,9.0,-99.9,-100.00,NW,309,6.0,8.0,-999,0.00,,,0.00,,2014-01-03 00:52:00,
2014-01-02 19:12:00,8.0,-99.9,-100.00,WNW,293,5.0,8.0,-999,0.00,,,0.00,,2014-01-03 01:12:00,
2014-01-02 19:22:00,8.0,-99.9,-100.00,WNW,293,5.0,8.0,-999,0.00,,,0.00,,2014-01-03 01:22:00,
2014-01-02 19:43:00,7.0,-99.9,-100.00,NW,307,8.0,12.0,-999,0.00,,,0.00,,2014-01-03 01:43:00,
2014-01-02 19:52:00,7.0,-99.9,-100.00,NW,307,8.0,12.0,-999,0.00,,,0.00,,2014-01-03 01:52:00,
2014-01-02 20:12:00,6.0,-99.9,-100.00,NW,316,6.0,10.0,-999,0.00,,,0.00,,2014-01-03 02:12:00,
2014-01-02 20:22:00,6.0,-99.9,-100.00,NW,316,6.0,10.0,-999,0.00,,,0.00,,2014-01-03 02:22:00,
2014-01-02 20:42:00,5.0,-99.9,-100.00,WNW,293,6.0,8.0,-999,0.00,,,0.00,,2014-01-03 02:42:00,
2014-01-02 20:53:00,5.0,-99.9,-100.00,WNW,293,6.0,8.0,-999,0.00,,,0.00,,2014-01-03 02:53:00,
2014-01-02 21:12:00,4.0,-99.9,-100.00,NW,311,5.0,9.0,-999,0.00,,,0.00,,2014-01-03 03:12:00,
2014-01-02 21:22:00,4.0,-99.9,-100.00,NW,311,5.0,9.0,-999,0.00,,,0.00,,2014-01-03 03:22:00,
2014-01-02 21:43:00,3.0,-99.9,-100.00,NW,317,4.0,7.0,-999,0.00,,,0.00,,2014-01-03 03:43:00,
2014-01-02 21:54:00,3.0,-99.9,-100.00,NW,317,4.0,7.0,-999,0.00,,,0.00,,2014-01-03 03:54:00,
2014-01-02 22:13:00,1.0,-99.9,-100.00,North,11,1.0,4.0,-999,0.00,,,0.00,,2014-01-03 04:13:00,
2014-01-02 22:23:00,1.0,-99.9,-100.00,North,11,1.0,4.0,-999,0.00,,,0.00,,2014-01-03 04:23:00,
2014-01-02 22:43:00,2.0,-99.9,-100.00,NW,312,2.0,4.0,-999,0.00,,,0.00,,2014-01-03 04:43:00,
2014-01-02 22:53:00,2.0,-99.9,-100.00,NW,312,2.0,4.0,-999,0.00,,,0.00,,2014-01-03 04:53:00,
2014-01-02 23:43:00,-3.0,-99.9,-100.00,SE,129,1.0,2.0,-999,0.00,,,0.00,,2014-01-03 05:43:00,
2014-01-02 23:53:00,-3.0,-99.9,-100.00,SE,129,1.0,2.0,-999,0.00,,,0.00,,2014-01-03 05:53:00,